Wind_Speed
56 57 59 60 61 62 62 63 64 64 64 65 65 65 65 65 65 65 64 64 64 64 64 64 64 64 64 63 63 63 62 62 62 63 63 64 65 66
57 58 59 60 61 62 61 62 63 63 62 61 62 62 62 63 63 63 62 62 61 60 59 58 57 57 56 56 56 56 56 56 56 57 58 59 61 62
58 58 59 59 60 60 60 60 60 60 59 59 60 60 60 61 61 60 59 58 56 54 52 50 50 49 48 48 48 48 49 49 50 51 52 54 56 58
56 56 57 57 57 57 58 58 58 58 58 58 58 58 58 59 58 56 53 51 48 46 44 42 41 41 40 41 42 42 42 43 44 45 46 48 51 53
54 54 54 54 54 55 55 56 56 57 57 56 55 55 54 53 50 48 44 41 39 37 36 35 35 35 36 36 37 38 39 40 40 41 42 43 46 48
52 52 52 52 53 53 54 54 54 54 53 53 51 49 47 44 41 38 35 35 34 33 33 32 32 32 33 34 35 35 36 36 37 37 38 39 40 43
51 51 51 52 52 52 52 51 50 50 48 46 43 40 38 35 34 33 33 32 32 32 32 31 31 31 31 31 32 32 33 34 34 34 34 35 35 37
50 50 50 50 50 49 48 47 45 44 41 37 34 32 30 30 30 30 30 30 30 30 30 30 30 29 29 29 29 29 30 30 31 31 32 32 33 34
49 49 49 48 46 45 43 42 40 37 33 29 27 26 26 27 27 27 28 28 28 27 27 27 27 26 26 26 26 26 26 26 26 27 28 29 30 31
47 46 45 43 41 39 37 35 31 29 26 24 23 23 24 24 25 25 25 25 26 26 25 24 25 25 25 24 23 23 23 23 23 23 24 25 26 28
43 41 38 35 33 30 28 26 24 22 21 20 21 21 22 22 22 22 22 22 22 22 22 22 22 22 21 21 21 20 19 19 19 20 21 21 22 24
36 33 29 26 24 23 21 19 18 18 18 19 20 20 20 20 20 20 20 20 19 20 20 20 20 19 19 18 17 16 16 16 16 16 17 18 19 20
27 24 21 19 17 15 13 13 14 15 16 16 17 17 18 18 19 18 18 18 18 19 19 17 16 15 14 14 13 12 12 12 13 13 14 15 16 17
19 17 15 13 11 10 10 11 12 13 14 14 15 16 18 17 17 17 17 18 18 18 16 15 14 12 11 9 8 8 8 8 9 10 11 11 12 14
13 11 9 7 7 7 8 10 12 12 13 14 15 16 17 17 17 17 17 17 17 15 14 13 12 10 9 8 7 6 6 6 5 6 6 8 9 10
8 6 4 4 6 7 8 10 11 12 13 14 15 16 17 17 17 17 17 17 16 15 14 12 11 10 9 9 8 7 6 5 3 1 1 4 6 8
2 2 3 5 6 7 9 10 11 12 14 15 17 17 17 18 18 18 17 17 17 16 15 14 13 13 12 11 11 10 9 8 7 6 4 4 5 7
3 4 5 6 7 8 10 11 12 13 15 16 17 17 18 19 19 19 19 19 19 18 17 16 16 17 16 15 14 13 13 12 11 10 8 7 7 8
6 6 7 8 9 10 11 12 13 14 16 17 17 18 19 20 20 21 21 20 20 20 20 20 19 19 18 18 17 17 16 15 14 13 13 12 11 11
8 8 9 10 10 11 13 14 15 16 17 17 18 19 20 20 21 22 22 22 22 22 22 21 21 21 20 20 19 20 20 19 18 17 16 15 14 14
10 10 11 11 12 13 14 15 17 17 18 19 19 20 20 21 21 22 23 23 23 23 22 22 22 22 21 21 20 19 20 20 20 19 18 18 17 16
11 12 12 13 13 14 16 17 18 19 19 20 21 21 22 22 22 22 22 23 23 22 22 23 23 22 22 20 20 20 20 20 20 20 19 19 19 18
12 13 13 14 15 16 17 18 19 19 20 21 22 22 23 23 23 23 22 22 22 22 22 23 23 22 22 21 20 20 20 20 20 20 19 19 19 19
Wind_Direction
292 291 289 288 288 288 288 288 288 289 289 289 289 288 288 288 288 287 286 285 284 282 280 279 277 275 274 272 270 268 266 264 263 260 258 256 254 252
292 291 289 289 289 289 289 289 290 291 291 290 290 289 289 289 289 289 288 287 285 284 282 280 279 277 275 272 270 268 266 264 262 260 258 256 253 251
292 291 290 290 291 291 292 293 293 293 293 293 292 292 291 291 291 291 290 288 287 285 283 280 278 276 274 272 270 268 266 264 262 260 259 256 253 251
293 292 292 292 292 293 293 294 294 295 295 295 294 294 294 294 293 293 292 290 288 286 283 281 278 276 274 272 270 268 266 265 263 261 259 257 254 250
294 294 294 294 295 295 295 296 296 296 296 296 296 296 296 295 295 294 293 291 289 287 284 281 279 277 274 273 271 269 267 265 263 261 259 257 254 249
295 295 296 296 296 297 297 298 298 298 298 299 299 298 297 297 297 296 295 293 291 289 288 285 282 279 277 274 272 271 269 266 264 262 260 257 254 250
297 297 297 298 298 299 299 299 299 300 300 301 300 299 299 299 298 297 296 294 293 292 291 289 286 284 281 278 275 273 270 267 264 262 260 257 254 250
298 299 299 299 300 300 301 301 301 302 302 302 301 301 301 300 299 299 298 296 295 294 293 291 289 288 285 281 278 275 272 269 264 261 259 257 253 249
299 300 300 301 301 302 302 302 303 304 304 303 303 303 303 303 303 302 301 300 299 297 295 293 291 290 288 284 281 278 274 271 265 261 259 256 253 248
299 300 301 301 302 303 303 304 305 306 307 309 309 309 309 309 308 307 306 305 303 302 300 298 294 292 289 286 283 279 275 272 266 262 259 257 252 247
300 301 302 302 303 303 304 305 307 309 312 315 317 317 317 317 316 315 314 313 310 309 306 303 299 296 293 289 286 282 275 271 267 262 258 255 250 245
301 302 303 303 302 303 305 308 311 315 319 321 323 324 325 325 324 324 323 321 318 315 312 309 307 303 299 295 289 282 277 273 269 263 258 255 248 240
302 303 305 305 305 307 311 317 322 325 327 329 332 333 333 333 334 333 331 329 326 323 320 317 316 314 309 302 295 286 281 277 270 264 259 254 245 235
302 304 307 308 312 318 326 333 336 338 339 341 342 342 343 343 342 340 338 336 334 331 330 329 329 328 325 321 311 300 294 287 276 268 259 248 238 230
303 307 310 318 330 339 345 348 349 351 353 353 352 352 352 351 351 350 348 348 347 348 348 349 351 353 354 353 347 335 325 317 296 276 255 237 226 219
306 313 329 349 358 2 3 3 4 4 4 4 2 2 3 3 2 3 2 3 5 10 13 13 16 20 23 24 22 20 19 16 14 358 224 204 201 200
329 19 24 22 22 21 19 19 17 14 14 13 12 12 15 16 17 18 20 22 25 28 29 33 38 40 41 44 45 47 49 53 58 63 83 130 157 171
75 59 49 44 42 39 34 31 28 25 24 23 24 26 28 29 31 33 35 37 40 43 45 48 50 52 53 55 55 57 59 62 64 67 79 100 118 136
77 69 63 59 54 49 44 40 36 34 33 33 36 36 37 40 42 42 44 47 50 51 51 54 57 58 58 60 62 64 65 65 66 71 82 89 100 116
78 74 70 66 61 55 49 45 43 41 40 41 41 43 44 46 47 48 49 51 54 55 56 58 61 62 63 64 66 67 67 67 68 73 81 88 94 107
80 77 74 69 63 59 54 51 50 49 48 48 48 48 49 50 51 52 52 54 56 57 59 61 63 65 66 66 67 68 68 69 72 76 80 85 90 100
82 78 75 72 68 65 61 58 57 55 54 53 52 52 52 53 53 54 54 55 57 59 60 61 64 66 67 67 66 67 69 72 75 76 80 86 89 96
83 79 77 75 73 70 67 64 62 59 57 56 55 55 54 54 54 54 55 56 57 59 60 63 65 66 68 69 68 68 70 73 76 77 81 86 92 98
Height
5735 5730 5724 5719 5713 5707 5701 5695 5690 5686 5681 5673 5666 5659 5653 5648 5642 5638 5634 5629 5626 5622 5618 5615 5613 5610 5608 5607 5606 5606 5606 5607 5609 5611 5613 5617 5620 5625
5719 5714 5708 5702 5696 5690 5685 5678 5672 5668 5663 5656 5649 5642 5636 5630 5624 5619 5614 5610 5606 5602 5598 5595 5592 5589 5588 5586 5585 5585 5586 5587 5588 5590 5592 5595 5599 5603
5703 5697 5692 5686 5680 5674 5668 5662 5656 5650 5646 5640 5632 5625 5619 5613 5607 5601 5596 5591 5587 5583 5580 5577 5574 5572 5570 5569 5568 5567 5568 5569 5570 5571 5573 5576 5579 5583
5687 5681 5676 5670 5665 5659 5653 5647 5641 5634 5628 5623 5616 5609 5602 5596 5590 5585 5579 5574 5570 5567 5564 5561 5559 5557 5556 5554 5553 5553 5552 5553 5554 5555 5556 5559 5561 5563
5671 5666 5661 5656 5650 5644 5638 5632 5625 5619 5612 5606 5600 5593 5587 5580 5575 5570 5565 5561 5557 5554 5551 5549 5547 5545 5543 5542 5540 5540 5539 5539 5539 5540 5540 5542 5544 5546
5657 5652 5647 5641 5635 5629 5623 5617 5610 5604 5598 5591 5585 5579 5573 5567 5562 5558 5555 5551 5547 5543 5540 5538 5535 5533 5531 5530 5529 5528 5527 5526 5526 5526 5527 5527 5529 5531
5644 5638 5633 5628 5621 5615 5609 5603 5597 5591 5585 5579 5573 5568 5563 5558 5553 5549 5545 5542 5538 5534 5531 5528 5525 5523 5521 5519 5517 5516 5515 5514 5514 5514 5514 5515 5516 5518
5630 5625 5619 5614 5608 5602 5597 5591 5585 5579 5574 5569 5564 5559 5555 5550 5546 5541 5537 5533 5530 5526 5522 5518 5515 5513 5510 5508 5507 5505 5504 5503 5503 5503 5503 5504 5505 5507
5618 5612 5607 5601 5596 5591 5585 5580 5575 5569 5565 5561 5557 5553 5548 5544 5539 5534 5530 5525 5521 5517 5514 5510 5507 5504 5502 5499 5498 5496 5495 5493 5493 5493 5493 5494 5495 5497
5606 5601 5596 5590 5586 5581 5576 5571 5567 5562 5558 5555 5551 5547 5542 5537 5533 5528 5523 5519 5514 5510 5506 5503 5499 5496 5494 5491 5489 5488 5486 5485 5485 5485 5485 5485 5487 5488
5595 5591 5586 5581 5577 5573 5569 5565 5561 5558 5554 5550 5546 5542 5537 5532 5527 5523 5518 5513 5509 5505 5500 5496 5493 5489 5487 5484 5482 5480 5479 5478 5478 5478 5478 5478 5479 5480
5585 5582 5578 5575 5571 5568 5564 5561 5558 5554 5551 5547 5542 5538 5533 5529 5524 5519 5514 5509 5504 5500 5496 5492 5488 5484 5481 5478 5476 5475 5474 5473 5472 5472 5472 5472 5473 5474
5578 5575 5572 5569 5567 5564 5561 5559 5556 5552 5548 5544 5540 5535 5531 5526 5521 5516 5511 5506 5501 5496 5492 5488 5484 5480 5477 5474 5472 5471 5469 5468 5468 5467 5467 5468 5468 5470
5573 5570 5568 5566 5564 5562 5560 5557 5554 5550 5546 5542 5538 5534 5529 5524 5519 5514 5509 5504 5499 5494 5489 5485 5481 5477 5474 5472 5470 5468 5467 5466 5465 5464 5464 5464 5465 5466
5569 5568 5566 5564 5563 5561 5559 5556 5553 5549 5546 5542 5538 5533 5528 5523 5518 5513 5508 5502 5497 5492 5487 5483 5480 5477 5474 5471 5469 5467 5466 5464 5463 5462 5461 5462 5463 5464
5568 5566 5565 5564 5562 5561 5558 5556 5553 5549 5546 5542 5538 5533 5528 5523 5518 5513 5507 5502 5497 5493 5488 5484 5480 5477 5475 5472 5470 5468 5466 5464 5463 5462 5461 5461 5462 5464
5567 5566 5565 5564 5563 5561 5559 5556 5553 5550 5547 5543 5539 5534 5529 5524 5519 5514 5509 5504 5499 5494 5490 5487 5483 5480 5477 5474 5472 5470 5468 5466 5465 5464 5463 5463 5464 5465
5567 5567 5566 5565 5563 5562 5560 5557 5554 5551 5548 5544 5540 5536 5531 5526 5521 5517 5512 5507 5502 5498 5494 5490 5487 5484 5481 5479 5476 5474 5472 5470 5468 5467 5466 5466 5467 5468
5569 5568 5567 5566 5565 5563 5561 5559 5556 5553 5550 5547 5543 5539 5534 5530 5525 5520 5516 5511 5507 5503 5499 5495 5492 5489 5487 5484 5482 5479 5477 5475 5473 5472 5471 5471 5471 5472
5570 5570 5569 5568 5567 5565 5564 5561 5559 5556 5553 5549 5546 5542 5538 5534 5530 5525 5521 5517 5513 5509 5505 5501 5498 5495 5493 5490 5488 5486 5483 5481 5480 5478 5477 5477 5477 5478
5573 5572 5572 5571 5570 5568 5566 5564 5561 5559 5556 5553 5549 5546 5542 5538 5534 5531 5526 5522 5519 5515 5512 5508 5505 5502 5499 5497 5495 5493 5490 5488 5487 5485 5484 5484 5484 5485
5576 5575 5574 5574 5573 5571 5569 5567 5565 5563 5560 5557 5554 5550 5547 5543 5539 5536 5532 5529 5525 5522 5518 5515 5511 5508 5506 5504 5502 5500 5498 5496 5494 5493 5492 5492 5492 5493
5579 5578 5578 5577 5576 5575 5573 5571 5569 5567 5564 5561 5558 5555 5552 5548 5545 5541 5538 5534 5531 5528 5525 5522 5518 5516 5513 5511 5509 5507 5505 5504 5502 5501 5500 5499 5499 5500